Cloud_Cover
45 0 0 0 0 0 0 0 0 0 1 100 100 5 61 91 100 100 69 18 4 1 0 0 0 0 0 5 2 1 3 5 1
98 80 0 0 0 0 0 0 0 0 87 13 5 93 100 100 100 100 100 26 5 0 0 0 0 0 44 0 0 1 5 5 5
79 7 0 3 0 0 3 5 2 13 8 25 100 100 100 100 100 100 44 2 19 12 1 1 5 3 5 5 4 5 5 5 1
0 0 0 5 0 2 5 5 4 3 53 100 100 100 100 100 100 92 81 100 6 1 5 5 5 5 5 47 32 5 5 5 3
0 0 0 0 5 5 5 5 5 96 100 100 100 100 100 100 99 98 99 30 2 0 5 5 5 5 5 4 7 11 6 0 0
0 0 0 0 4 5 39 5 10 6 97 100 100 100 100 100 81 100 77 2 5 3 20 5 5 5 5 5 0 0 4 2 0
0 0 0 0 0 10 92 18 16 100 100 100 100 100 100 100 100 100 44 79 3 3 27 5 4 0 0 0 3 2 0 3 3
5 5 5 0 3 2 52 50 8 100 100 100 100 100 100 100 100 100 56 8 0 5 5 5 5 5 0 1 4 5 3 5 2
5 5 5 5 5 5 65 31 28 100 100 100 100 100 100 100 100 62 5 0 0 5 5 5 5 70 100 82 10 8 0 0 0
5 5 5 10 5 10 74 28 42 100 100 100 100 100 100 100 100 100 100 100 83 29 37 89 26 61 100 100 100 75 12 3 1
0 5 42 100 100 98 100 100 100 100 100 100 100 74 67 22 5 2 3 2 4 5 72 71 72 22 24 100 26 68 99 92 22
25 26 91 80 100 100 100 100 100 91 35 27 6 9 14 5 2 0 0 2 2 97 100 85 51 6 5 31 83 78 5 75 100
14 100 100 100 96 76 31 17 36 27 13 10 5 5 3 0 0 0 0 5 20 98 32 18 48 5 0 2 4 5 4 1 5
94 88 17 0 0 5 28 50 67 54 6 5 11 8 0 0 0 5 6 19 22 5 98 18 4 5 5 7 30 31 13 5 5
0 0 0 0 0 0 0 0 0 0 0 3 2 2 2 5 5 19 78 76 11 0 6 0 2 4 5 5 8 6 76 21 6
30 5 4 0 0 0 0 0 1 4 1 5 10 39 55 40 94 96 26 32 2 0 5 5 5 0 0 0 1 5 5 2 0
5 0 0 0 0 0 0 3 2 4 4 6 7 38 72 5 5 5 3 1 5 7 5 5 4 5 5 4 0 0 0 0 0
5 4 4 4 5 5 3 5 5 4 3 4 1 5 14 5 7 7 5 5 5 5 5 5 5 5 5 2 0 0 0 0 0
2 0 0 0 1 0 1 5 9 5 6 5 5 3 0 1 4 37 35 69 93 89 38 24 32 14 2 4 1 3 2 1 2
0 2 0 0 0 0 0 5 5 0 5 5 5 7 17 5 1 2 1 2 3 2 1 5 5 5 0 0 2 5 4 5 5